Change the Weather History Date:

Saturday, May 3, 2014

  Actual Average (K3TH) Record (K3TH)
Temperature  
Mean Temperature 40 °F -  
Max Temperature 48 °F 62 °F 82 °F (1998)
Min Temperature 33 °F 39 °F 33 °F (2001)
Degree Days  
Heating Degree Days 24    
Moisture  
Dew Point 34 °F    
Average Humidity 86    
Maximum Humidity 100    
Minimum Humidity 48    
Precipitation  
Precipitation 0.06 in - - ()
Sea Level Pressure  
Sea Level Pressure 29.76 in    
Wind  
Wind Speed 6 mph (WSW)    
Max Wind Speed 10 mph    
Max Gust Speed 20 mph    
Visibility 6 miles    
Events Fog , Rain , Snow    
Averages and records for this station are not official NWS values.
T = Trace of Precipitation, MM = Missing Value Source: NWS Daily Summary

Daily Weather History Graph

Daily Weather History Graph

Search for Another Location

Airport or City:

Trip Planner

Search our weather history database for the weather conditions in past years. The results will help you decide how hot, cold, wet, or windy it might be!

Date:

Astronomy

May. 03, 2014 Rise Set
Actual Time 5:22 AM PDT 7:57 PM PDT
Civil Twilight 4:48 AM PDT 8:32 PM PDT
Nautical Twilight 4:04 AM PDT 9:15 PM PDT
Astronomical Twilight 3:14 AM PDT 10:06 PM PDT
Moon 8:52 AM PDT (5/3) No Moon Set
Length of Visible Light 15h 43m
Length of Day
14h 34m
Waxing Crescent, 20% of the Moon is Illuminated
May 3
Waxing Crescent
May 6
First Quarter
May 14
Full
May 21
Last Quarter
May 28
New

Hourly Weather History & Observations

Time (PDT) Temp. Windchill Dew Point Humidity Pressure Visibility Wind Dir Wind Speed Gust Speed Precip Events Conditions
12:53 AM 48.0 °F - 32.0 °F 54% 29.68 in 10.0 mi WSW 10.4 mph 16.1 mph 0.00 in Rain Light Rain
1:53 AM 46.9 °F - 28.0 °F 48% 29.68 in 10.0 mi Variable 6.9 mph - 0.00 in   Overcast
3:53 AM 45.0 °F 40.6 °F 28.9 °F 53% 29.66 in 10.0 mi West 8.1 mph - 0.00 in   Overcast
4:53 AM 44.1 °F 39.5 °F 30.0 °F 58% 29.65 in 10.0 mi SW 8.1 mph - N/A   Mostly Cloudy
5:53 AM 42.1 °F 40.2 °F 30.9 °F 65% 29.67 in 10.0 mi SW 3.5 mph - N/A   Partly Cloudy
6:53 AM 41.0 °F 38.0 °F 32.0 °F 70% 29.68 in 10.0 mi Variable 4.6 mph - N/A   Overcast
7:53 AM 39.9 °F 36.7 °F 33.1 °F 77% 29.70 in 10.0 mi Variable 4.6 mph - 0.00 in   Overcast
8:53 AM 39.9 °F 36.7 °F 33.1 °F 77% 29.69 in 10.0 mi Variable 4.6 mph - 0.00 in   Overcast
9:53 AM 39.9 °F 35.8 °F 33.1 °F 77% 29.68 in 10.0 mi WSW 5.8 mph - N/A   Overcast
10:53 AM 39.9 °F 36.7 °F 34.0 °F 79% 29.68 in 10.0 mi Variable 4.6 mph - N/A   Overcast
11:14 AM 39.2 °F 34.2 °F 35.6 °F 87% 29.85 in 10.0 mi SW 6.9 mph - 0.00 in   Overcast
11:53 AM 37.9 °F 33.5 °F 35.1 °F 89% 29.68 in 10.0 mi Variable 5.8 mph - 0.00 in   Overcast
12:31 PM 37.4 °F 32.1 °F 35.6 °F 93% 29.85 in 3.0 mi WSW 6.9 mph - 0.01 in Rain Light Rain
12:39 PM 37.4 °F 34.9 °F 35.6 °F 93% 29.85 in 2.0 mi Variable 3.5 mph - 0.01 in Rain Light Rain
12:46 PM 37.4 °F 33.8 °F 37.4 °F 100% 29.84 in 0.8 mi NW 4.6 mph - 0.01 in Rain Light Rain
12:50 PM 35.6 °F 32.8 °F 35.6 °F 100% 29.84 in 0.2 mi Variable 3.5 mph - 0.01 in Fog , Rain Light Rain
1:01 PM 35.6 °F 28.6 °F 35.6 °F 100% 29.84 in 0.2 mi NW 9.2 mph 18.4 mph 0.01 in Fog , Rain Light Rain
1:13 PM 35.6 °F 30.7 °F 35.6 °F 100% 29.85 in 0.2 mi Variable 5.8 mph - 0.02 in Fog , Rain Light Rain
1:25 PM 35.6 °F 31.7 °F 35.6 °F 100% 29.85 in 0.2 mi Variable 4.6 mph - 0.03 in Fog , Rain Light Rain
1:53 PM 35.1 °F 29.3 °F 35.1 °F 100% 29.70 in 0.2 mi Variable 6.9 mph - 0.05 in Fog , Rain Light Rain
2:01 PM 35.6 °F 31.7 °F 33.8 °F 93% 29.85 in 0.2 mi Variable 4.6 mph - 0.00 in Fog Fog
2:21 PM 33.8 °F 28.6 °F 33.8 °F 100% 29.85 in 0.5 mi Variable 5.8 mph - 0.00 in Fog , Snow Light Snow
2:25 PM 33.8 °F 29.6 °F 33.8 °F 100% 29.85 in 1.5 mi Variable 4.6 mph - 0.00 in Snow Light Snow
2:30 PM 33.8 °F 30.8 °F 33.8 °F 100% 29.85 in 0.8 mi Variable 3.5 mph - 0.00 in Rain Light Rain
2:40 PM 33.8 °F 30.8 °F 33.8 °F 100% 29.86 in 0.2 mi Variable 3.5 mph - 0.00 in Fog , Rain Light Freezing Rain
2:49 PM 33.8 °F 27.0 °F 33.8 °F 100% 29.85 in 0.5 mi SW 8.1 mph - 0.00 in Fog , Rain Light Freezing Rain
2:53 PM 34.0 °F 27.2 °F 34.0 °F 100% 29.70 in 0.8 mi SW 8.1 mph - 0.00 in Rain Light Freezing Rain
2:55 PM 33.8 °F 28.6 °F 33.8 °F 100% 29.85 in 2.0 mi Variable 5.8 mph - 0.00 in   Overcast
3:02 PM 35.6 °F 31.7 °F 33.8 °F 93% 29.85 in 10.0 mi Variable 4.6 mph - 0.00 in   Overcast
3:12 PM 35.6 °F 31.7 °F 35.6 °F 100% 29.85 in 10.0 mi Variable 4.6 mph - 0.00 in   Overcast
3:28 PM 35.6 °F 30.7 °F 33.8 °F 93% 29.84 in 10.0 mi Variable 5.8 mph 19.6 mph 0.01 in   Overcast
3:44 PM 37.4 °F 32.8 °F 35.6 °F 93% 29.84 in 10.0 mi Variable 5.8 mph - 0.01 in   Overcast
3:50 PM 37.4 °F 32.8 °F 35.6 °F 93% 29.84 in 10.0 mi Variable 5.8 mph - 0.01 in   Overcast
3:53 PM 37.9 °F 32.7 °F 36.0 °F 93% 29.68 in 10.0 mi Variable 6.9 mph - 0.01 in   Overcast
4:53 PM 39.9 °F 36.7 °F 34.0 °F 79% 29.68 in 10.0 mi Variable 4.6 mph 17.3 mph N/A   Scattered Clouds
5:53 PM 41.0 °F 37.1 °F 34.0 °F 76% 29.67 in 10.0 mi Variable 5.8 mph - N/A   Scattered Clouds
6:53 PM 37.9 °F 32.1 °F 34.0 °F 86% 29.68 in 10.0 mi WSW 8.1 mph - N/A   Mostly Cloudy
7:53 PM 37.9 °F 32.7 °F 32.0 °F 79% 29.68 in 10.0 mi WSW 6.9 mph - N/A   Clear
8:53 PM 37.0 °F 32.4 °F 30.0 °F 76% 29.69 in 10.0 mi Variable 5.8 mph - N/A   Clear
9:53 PM 37.0 °F 32.4 °F 28.0 °F 70% 29.68 in 10.0 mi Variable 5.8 mph - N/A   Clear
10:53 PM 35.1 °F 31.0 °F 30.9 °F 85% 29.68 in 10.0 mi South 4.6 mph - N/A   Partly Cloudy
11:53 PM 35.1 °F 31.0 °F 33.1 °F 92% 29.67 in 10.0 mi South 4.6 mph - N/A   Overcast